Regional Weather Roundup
Issued by NWS

Home | Current Version | Previous Version | Text Only | Print | Product List | Glossary On
Versions: 1 2 3 4 5 6 7 8 9 10 11 12 13 14 15 16 17 18 19 20 21 22 23 24 25 26 27 28 29 30 31 32 33 34 35 36 37 38 39 40 41 42 43 44 45 46 47 48 49 50
000
ASUS43 KDTX 261610
RWRMI
MICHIGAN HOURLY REGIONAL WEATHER ROUNDUP
NATIONAL WEATHER SERVICE DETROIT/PONTIAC MI
1200 PM EDT THU APR 26 2018

NOTE: "FAIR" INDICATES FEW OR NO CLOUDS BELOW 12,000 FEET WITH NO
SIGNIFICANT WEATHER AND/OR OBSTRUCTION TO VISIBILITY.

MIZ047>049-052>055-059>063-066>070-074>076-081>083-261700-
SOUTHEAST LOWER MICHIGAN

CITY           SKY/WX    TMP DP  RH WIND       PRES   REMARKS
ADRIAN         FAIR      50  38  63 VRB3      29.96F
ALMA           FAIR      53  29  39 W8        29.93F
ANN ARBOR      FAIR      52  36  54 VRB3      29.93F
BAD AXE        FAIR      52  28  39 W7        29.92S
CARO           FAIR      51  29  42 W7        29.92S
DETROIT CITY   FAIR      52  34  50 NW7       29.93F
DETROIT        FAIR      54  35  48 VRB3      29.94F
FLINT          FAIR      51  31  46 NW6       29.93F
GROSSE ILE     FAIR      50  42  76 S12       29.94S
HILLSDALE      FAIR      52  34  50 CALM      29.94S
HOWELL         FAIR      52  36  53 SW5       29.93S

CITY           SKY/WX    TMP DP  RH WIND       PRES   REMARKS
JACKSON        FAIR      52  37  56 MISG      29.94S
LAMBERTVILLE   FAIR      53  38  58 CALM      29.96S
LANSING        FAIR      54  30  40 W5        29.94F
LAPEER         FAIR      51  31  48 W8        29.92F
MASON          FAIR      55  30  39 W6        29.94S
MONROE         FAIR      52  37  56 SW6       29.95S
MT. CLEMENS    PTSUNNY   52  37  58 SE6       29.93F
PONTIAC        PTSUNNY   51  35  54 W7        29.92S
PORT HOPE        N/A     44  34  67 NW8       29.90F
PORT HURON     FAIR      50  32  50 W8        29.93S
TRI CITIES     FAIR      51  30  44 W8        29.93F
MIDLAND        FAIR      53  28  39 NW3       29.92S
TROY           FAIR      53  33  47 CALM      29.95S
SAGINAW HB     FAIR      50  30  46 W7        29.92F
$$
MIZ043>046-050>051-056>058-064>065-071>073-077>080-261700-
SOUTHWEST LOWER MICHIGAN

CITY           SKY/WX    TMP DP  RH WIND       PRES   REMARKS
BATTLE CREEK   FAIR      55  31  39 CALM      29.95S
BENTON HARBOR  FAIR      51  36  56 W8        29.96S
BIG RAPIDS     FAIR      54  23  30 W5        29.92S
COLDWATER      FAIR      51  37  59 NW3       29.96S
FREMONT        FAIR      54  20  26 N3        29.93F
HOLLAND        FAIR      53  33  46 W6        29.96S
GRAND RAPIDS   FAIR      56  30  37 CALM      29.94S
IONIA          FAIR      54  29  37 NW7       29.93S
KALAMAZOO      FAIR      54  27  35 CALM      29.95S
LUDINGTON      FAIR      50  28  43 SW10      29.93S
MARSHALL       FAIR      54  32  42 CALM      29.94S
MOUNT PLEASANT FAIR      54  29  37 CALM      29.92F
MUSKEGON       PTSUNNY   52  25  35 W8        29.95F
SOUTH HAVEN    FAIR      52  34  50 NW7       29.96S
$$
MIZ016>042-261700-
NORTHERN LOWER MICHIGAN

CITY           SKY/WX    TMP DP  RH WIND       PRES   REMARKS
ALPENA         FAIR      51  27  39 W7        29.90S
BEAVER ISLAND  FAIR      48  27  43 SW15G23   29.88S
BELLAIRE       FAIR      51  26  37 S6        29.90F
CADILLAC       FAIR      53  28  37 SW7       29.89F
CHARLEVOIX     FAIR      51  26  37 SW10      29.92S
FRANKFORT      FAIR      49  28  43 SW8       29.92S
GAYLORD        FAIR      48  25  40 W6        29.88F
GRAYLING       FAIR      51  26  38 SW7       29.88F
HARBOR SPRINGS FAIR      48  26  42 W6        29.89F
HOUGHTON LAKE  FAIR      50  27  40 W5        29.91F
MANISTEE       FAIR      55  31  39 W10       29.91F
OSCODA         FAIR      51  31  46 E6        29.90F
PELLSTON       FAIR      51  26  37 W10       29.88F
ROGERS CITY    FAIR      47  27  46 E5        29.89F
TRAVERSE CITY  PTSUNNY   54  30  40 SW9       29.89F
$$
MIZ007>008-015-261700-
EASTERN UPPER MICHIGAN

CITY           SKY/WX    TMP DP  RH WIND       PRES   REMARKS
KINROSS        FAIR      49  28  44 VRB7      29.86S
MACKINAC ISLAN FAIR      46  27  47 W12       29.88S
NEWBERRY       FAIR      46  27  48 S13       29.84F
MUNISING         N/A     56  28  34 S6        29.80F
$$
MIZ004>006-011>014-085-261700-
CENTRAL UPPER MICHIGAN

CITY           SKY/WX    TMP DP  RH WIND       PRES   REMARKS
MANISTIQUE     FAIR      43  33  69 S10       29.86S
ESCANABA       FAIR      49  34  56 S10       29.84F
MENOMINEE      FAIR      56  32  40 W9        29.87F
SAWYER-GWINN   SUNNY     54  23  30 W13       29.80F
$$
MIZ001>003-009>011-084-261700-
WESTERN UPPER MICHIGAN

CITY           SKY/WX    TMP DP  RH WIND       PRES   REMARKS
IRON MOUNTAIN  FAIR      58  26  29 SW12      29.80F
HOUGHTON       FAIR      53  29  39 W14       29.75F
COPPER HARBOR    N/A     49  31  49 N16       29.74S
IRONWOOD       FAIR      56  31  38 W18       29.79S
$$

ABBREVIATIONS USED IN REMARKS
   TC - TEMPERATURE IN CELSIUS
  WCI - WIND CHILL INDEX
   HX - HEAT INDEX
  VSB - VISIBILITY





USA.gov is the U.S. government's official web portal to all federal, state and local government web resources and services.